Regional Weather Roundup
Issued by NWS

Home | Current Version | Previous Version | Graphics & Text | Print | Product List | Glossary On
Versions: 1 2 3 4 5 6 7 8 9 10 11 12 13 14 15 16 17 18 19 20 21 22 23 24 25 26 27 28 29 30 31 32 33 34 35 36 37 38 39 40 41 42 43 44 45 46 47 48 49 50
000
ASUS43 KIND 292359
RWRIN

WEATHER ROUNDUP FOR INDIANA
NATIONAL WEATHER SERVICE INDIANAPOLIS IN
800 PM EDT FRI MAY 29 2015

NOTE: "FAIR" INDICATES FEW OR NO CLOUDS BELOW 12,000 FEET WITH NO
SIGNIFICANT WEATHER AND/OR OBSTRUCTIONS TO VISIBILITY.

* - STATION DOES NOT REPORT WEATHER SUCH AS PRECIPITATION OR FOG.

+ - STATION NOT QUALITY CONTROLLED BY THE NATIONAL WEATHER SERVICE.
    USE DATA WITH CAUTION...ESPECIALLY DEWPOINT AND RELATIVE
    HUMIDITY OBSERVATIONS.

INZ001>003-010>013-019-020-300100-
NORTHWEST INDIANA

CITY           SKY/WX    TMP DP  RH WIND       PRES   REMARKS
GARY /AIRPORT/ PTSUNNY   84  61  45 SW14      29.92R
RENSSELAER +   PTSUNNY   82  61  47 S17G23    29.95R

$$

LMZ046-743>745-300100-
SOUTHERN LAKE MICHIGAN

STATION/POSITION TIME  TEMP    WIND        PRES    WAVE
                       AIR SEA DIR/SP/G            HT
                 (UTC) (F)     (DEG/KT/KT) (MB)    (FT)
BURNS HARBOR     2300   82     220/ 15/ 24 1013.2R
MICHIGAN CITY    2300   82     190/ 14/ 18   N/A
5NW MICH CITY    2300   67 56  290/  6/  8   N/A     1

$$

INZ004-005-014>016-021>024-300100-
NORTH CENTRAL INDIANA

CITY           SKY/WX    TMP DP  RH WIND       PRES   REMARKS
ELKHART        SUNNY     82  63  51 S7        29.95
GOSHEN         MOSUNNY   81  65  58 S13G23    29.95F
6HR MIN TEMP:  81; 6HR MAX TEMP:  85; 6HR PCP: TRACE;

SOUTH BEND     MOSUNNY   82  61  48 S13       29.94S
6HR MIN TEMP:  80; 6HR MAX TEMP:  85; 6HR PCP:  0.01;


$$

INZ006>009-017-018-025>027-300100-
NORTHEAST INDIANA

CITY           SKY/WX    TMP DP  RH WIND       PRES   REMARKS
ANGOLA *+      SUNNY     82  77  83 S8        29.98F
FORT WAYNE     MOSUNNY   80  64  58 S12       29.99S
6HR MIN TEMP:  80; 6HR MAX TEMP:  85;


$$

INZ028-029-035-036-043>045-051>053-300100-
WEST CENTRAL INDIANA

CITY           SKY/WX    TMP DP  RH WIND       PRES   REMARKS
CRAWFORDSVL +  CLOUDY    78  57  48 S10G18    29.99S
6HR MIN TEMP:  78; 6HR MAX TEMP:  83;

GREENCASTLE +  MOSUNNY   77  61  57 S13       30.02R
LAFAYETTE      PTSUNNY   80  64  58 S12G20    29.97R
6HR MIN TEMP:  80; 6HR MAX TEMP:  85;

TERRE HAUTE    MOSUNNY   81  65  58 S10G21    30.00R
6HR MIN TEMP:  81; 6HR MAX TEMP:  85;


$$

INZ030>032-037>040-046>048-054>057-064-065-300100-
CENTRAL INDIANA

CITY           SKY/WX    TMP DP  RH WIND       PRES   REMARKS
COLUMBUS       MOSUNNY   79  63  57 S12       30.03S
GREENWOOD *+   SUNNY     81  61  50 S10       30.03
INDIANAPOLIS   MOSUNNY   80  63  55 S16       30.00S
6HR MIN TEMP:  79; 6HR MAX TEMP:  84;

-EAGLE CREEK   SUNNY     80  65  59 S12       30.00S
6HR MIN TEMP:  80; 6HR MAX TEMP:  83;

KOKOMO *+      SUNNY     82  64  54 SW14      29.99R
6HR MIN TEMP:  73; 6HR MAX TEMP:  84; 6HR PCP:  0.11;

MT COMFORT *+  SUNNY     81  52  36 S10       30.02S
SHELBYVILLE    MOSUNNY   82  64  54 S15       30.02R
6HR MIN TEMP:  82; 6HR MAX TEMP:  87;


$$

INZ033-034-041-042-049-050-058-059-300100-
EAST CENTRAL INDIANA

CITY           SKY/WX    TMP DP  RH WIND       PRES   REMARKS
MUNCIE         SUNNY     81  62  52 S10G21    30.01S
6HR MIN TEMP:  73; 6HR MAX TEMP:  84; 6HR PCP:  0.10;


$$

INZ060-061-067>069-081>083-085>088-300100-
SOUTHWEST INDIANA

CITY           SKY/WX    TMP DP  RH WIND       PRES   REMARKS
EVANSVILLE     SUNNY     80  66  62 S5        30.01S
6HR MIN TEMP:  80; 6HR MAX TEMP:  83;

HUNTINGBURG *+ SUNNY     79  66  65 S8        30.03S
6HR MIN TEMP:  77; 6HR MAX TEMP:  81;


$$

INZ062-063-066-070>080-084-089>092-300100-
SOUTH CENTRAL AND SOUTHEAST INDIANA

CITY           SKY/WX    TMP DP  RH WIND       PRES   REMARKS
BLOOMINGTON    SUNNY     78  65  63 S12       30.03S
6HR MIN TEMP:  77; 6HR MAX TEMP:  84;

MADISON *+     CLEAR     81  59  47 S6        30.07S
SEYMOUR +      CLEAR     82  63  51 S8        30.03S

$$



USA.gov is the U.S. government's official web portal to all federal, state and local government web resources and services.